Probability
0 0 0 0 0 0 0 0 0 0 0 0 0 0 0 0 0 0 0 0 0 0 0 0 0 0 0 0 0 0 0 0 0 0 0 0 0 0 0 0 0 1 0 0
0 0 0 0 0 0 0 0 0 0 0 0 0 0 0 0 0 0 0 0 0 0 0 0 0 0 0 0 0 0 0 0 0 0 0 0 0 0 0 0 1 1 1 1
0 0 0 0 0 0 0 0 0 0 0 0 0 0 0 0 0 0 0 0 0 0 0 0 0 0 0 0 0 0 0 0 0 0 0 0 0 0 0 0 1 2 2 2
0 0 0 0 0 0 0 0 0 0 0 0 0 0 0 0 0 0 0 0 0 0 0 0 0 0 0 0 0 0 0 0 0 0 0 0 0 0 0 0 0 1 1 2
0 0 0 0 0 0 0 0 0 0 0 0 0 0 0 0 0 0 0 0 0 0 0 0 0 0 0 0 0 0 0 0 0 0 0 0 0 0 0 0 0 0 1 2
0 0 0 0 0 0 0 0 0 0 0 0 0 0 0 0 0 0 0 0 0 0 0 0 0 0 0 0 0 0 0 0 0 0 0 0 0 0 0 0 0 0 0 1
0 0 0 0 0 0 0 0 0 0 0 0 0 0 0 0 0 0 0 0 0 0 0 0 0 0 0 0 0 0 0 0 0 0 0 0 0 0 0 0 0 0 0 0
0 0 0 0 0 0 0 0 0 0 0 0 0 0 0 0 0 0 0 0 0 0 0 0 0 0 0 0 0 0 0 0 0 0 0 0 0 0 0 0 0 0 0 0
0 0 0 0 0 0 0 0 0 0 0 0 0 0 0 0 0 0 0 0 0 0 0 0 0 0 0 0 0 0 0 0 0 0 0 0 0 0 0 0 0 0 0 0
0 0 0 0 0 0 0 0 0 0 0 0 0 0 0 0 0 0 0 0 0 0 0 0 0 0 0 0 0 0 0 0 0 0 0 0 0 0 0 0 0 0 0 0
0 0 0 0 0 0 0 0 0 0 0 0 0 0 0 0 0 0 0 0 0 0 0 0 0 0 0 0 0 0 0 0 0 0 0 0 0 0 0 0 0 0 0 0
0 0 0 0 0 0 0 0 0 0 0 0 0 0 0 0 0 0 0 0 0 0 0 0 0 0 0 0 0 0 0 0 0 0 0 0 0 0 0 0 0 0 0 0
0 0 0 0 0 0 0 0 0 0 0 0 0 0 0 0 0 0 0 0 0 0 0 0 0 0 0 0 0 0 0 0 0 0 0 0 0 0 0 0 0 0 0 0
0 0 0 0 0 0 0 0 0 0 0 0 0 0 0 0 0 0 0 0 0 0 0 0 0 0 0 0 0 0 0 0 0 0 0 0 0 0 0 0 0 0 0 0
0 0 0 0 0 0 0 0 0 0 0 0 0 0 0 0 0 0 0 0 0 0 0 0 0 0 0 0 0 0 0 0 0 0 0 0 0 0 0 0 0 0 0 0
0 0 0 0 0 0 0 0 0 0 0 0 0 0 0 0 0 0 0 0 0 0 0 0 0 0 0 0 0 0 0 0 0 0 0 0 0 0 0 0 0 0 0 0
0 0 0 0 0 0 0 0 0 0 0 0 0 0 0 0 0 0 0 0 0 0 0 0 0 0 0 0 0 0 0 0 0 0 0 0 0 0 0 0 0 0 0 0
0 0 0 0 0 0 0 0 0 0 0 0 0 0 0 0 0 0 0 0 0 0 0 0 0 0 0 0 0 0 0 0 0 0 0 0 0 0 0 0 0 0 0 0
0 0 0 0 0 0 0 0 0 0 0 0 0 0 0 0 0 0 0 0 0 0 0 0 0 0 0 0 0 0 0 0 0 0 0 0 0 0 0 0 0 0 0 0
0 0 0 0 0 0 0 0 0 0 0 0 0 0 0 0 0 0 0 0 0 0 0 0 0 0 0 0 0 0 0 0 0 0 0 0 0 0 0 0 0 0 0 0
0 0 0 0 0 0 0 0 0 0 0 0 0 0 0 0 0 0 0 0 0 0 0 0 0 0 0 0 0 0 0 0 0 0 0 0 0 0 0 0 0 0 0 0
0 0 0 0 0 0 0 0 0 0 0 0 0 0 0 0 0 0 0 0 0 0 0 0 0 0 0 0 0 0 0 0 0 0 0 0 0 0 0 0 0 0 0 0
0 0 0 0 0 0 0 0 0 0 0 0 0 0 0 0 0 0 0 0 0 0 0 0 0 0 0 0 0 0 0 0 0 0 0 0 0 0 0 0 0 0 0 0
0 0 0 0 0 0 0 0 0 0 0 0 0 0 0 0 0 0 0 0 0 0 0 0 0 0 0 0 0 0 0 0 0 0 0 0 0 0 0 0 0 0 0 0
0 0 0 0 0 0 0 0 0 0 0 0 0 0 0 0 0 0 0 0 0 0 0 0 0 0 0 0 0 0 0 0 0 0 0 0 0 0 0 0 0 0 0 0
0 0 0 0 0 0 0 0 0 0 0 0 0 0 0 0 0 0 0 0 0 0 0 0 0 0 0 0 0 0 0 0 0 0 0 0 0 0 0 0 0 0 0 0
0 0 0 0 0 0 0 0 0 0 0 0 0 0 0 0 0 0 0 0 0 0 0 0 0 0 0 0 0 0 0 0 0 0 0 0 0 0 0 0 0 0 0 0
Wind_Speed
8 5 5 8 10 10 9 6 4 5 6 9 13 12 11 12 13 14 14 14 13 12 11 11 11 10 9 8 7 7 7 6 6 5 4 4 3 1 1 2 4 5 5 6
5 3 2 6 9 8 8 6 5 5 5 9 9 9 11 13 13 13 14 14 13 12 12 12 11 10 9 9 8 8 8 8 7 6 6 5 4 3 2 2 3 4 5 5
4 3 4 3 6 5 4 5 5 6 7 11 9 10 11 12 12 12 12 12 12 11 11 11 10 9 9 9 9 9 9 8 8 7 7 6 6 5 4 3 3 2 3 3
2 4 1 5 2 1 2 3 4 4 6 8 8 6 5 9 11 11 11 10 10 10 9 9 9 9 9 9 10 10 9 9 8 8 7 7 7 6 6 5 4 3 3 3
2 2 3 4 3 2 1 1 3 5 7 8 7 2 7 12 12 10 9 8 8 8 8 8 8 8 8 9 9 10 10 9 9 8 8 8 8 7 6 5 5 5 5 4
3 3 2 5 5 1 4 2 2 3 6 8 8 4 8 13 12 10 9 8 8 7 8 8 8 7 8 9 9 9 9 9 9 8 8 8 8 7 6 5 6 5 6 6
4 2 2 6 6 5 4 4 3 2 5 7 8 7 9 11 9 9 7 7 7 7 7 7 7 6 7 8 9 7 7 7 8 8 8 8 7 7 7 6 6 6 6 6
4 4 3 10 7 5 3 4 1 2 4 6 7 7 8 9 9 9 8 8 7 6 6 5 6 6 7 7 6 5 5 6 7 7 7 6 7 7 7 7 7 7 7 7
4 1 5 7 5 1 1 2 0 2 4 5 6 7 8 9 8 8 8 7 7 6 6 4 4 5 5 5 4 4 5 6 6 6 6 7 7 7 7 7 6 6 6 6
5 5 6 7 6 5 4 3 1 2 4 5 6 8 8 8 8 8 8 7 7 7 6 5 4 3 3 3 2 3 5 5 5 6 6 7 6 6 6 7 6 6 6 6
7 5 7 9 9 8 6 4 3 2 3 4 6 7 8 8 8 8 8 7 7 7 7 7 5 4 2 2 2 3 4 4 5 5 5 5 6 6 6 7 7 6 6 5
6 9 8 9 12 10 8 6 3 2 2 3 5 7 8 8 8 8 8 8 7 7 7 7 6 5 2 2 2 3 4 4 4 4 4 4 4 6 6 5 7 9 10 9
1 7 6 5 10 11 9 6 3 2 3 4 5 6 7 8 7 8 8 8 9 8 8 7 6 5 3 1 2 2 2 3 3 3 4 4 4 4 4 5 5 9 12 13
4 8 7 8 9 10 8 6 4 3 2 3 5 5 6 7 7 8 8 9 9 8 7 6 5 4 3 1 2 1 1 2 2 2 3 3 4 4 4 4 4 6 8 11
10 8 7 8 9 10 8 7 6 5 3 3 3 5 6 8 8 9 9 9 9 7 6 6 5 4 3 1 3 3 2 2 2 2 2 3 3 3 4 4 5 4 4 6
12 8 7 10 11 11 9 8 7 5 4 3 4 5 6 7 8 8 8 8 8 8 7 6 6 5 3 1 3 3 2 2 1 1 2 2 2 3 3 4 4 4 5 5
16 14 12 12 12 11 10 8 7 5 4 4 4 5 7 7 7 7 8 8 7 6 5 6 6 5 3 2 3 3 3 4 4 2 2 2 2 2 3 3 3 4 4 5
15 14 13 12 11 11 10 8 7 6 5 4 4 5 6 7 7 8 9 9 7 4 5 6 7 6 2 2 3 3 3 3 3 2 2 2 1 2 2 2 3 3 3 4
14 13 12 10 10 9 9 8 7 6 5 4 5 5 5 6 7 8 8 8 7 6 7 8 9 6 1 1 2 3 3 3 3 3 2 3 2 2 2 1 2 2 2 2
13 12 11 10 9 8 8 7 7 6 5 5 5 5 5 5 6 7 8 6 4 5 8 9 8 4 2 2 3 3 4 4 4 3 3 3 2 2 2 2 1 1 2 2
14 13 12 11 10 9 8 8 7 6 6 5 6 5 5 6 6 6 6 5 5 7 9 8 5 3 2 0 4 4 4 4 4 4 4 3 3 3 3 3 2 2 1 2
14 13 13 11 10 9 9 8 7 7 6 6 6 6 6 6 6 6 5 4 6 7 8 6 4 4 5 4 4 4 4 4 4 4 4 4 3 3 3 3 2 2 2 2
12 12 12 12 12 10 10 9 8 7 7 7 7 6 6 5 5 5 5 4 5 9 8 5 7 9 8 6 4 5 5 5 5 4 4 4 4 4 3 3 3 3 3 3
9 11 12 11 11 10 11 10 9 7 7 7 7 6 6 5 5 4 4 5 6 9 7 5 7 9 8 5 4 5 5 5 5 5 5 4 4 4 4 4 3 3 3 4
6 9 11 11 11 10 10 10 9 9 8 7 8 7 6 5 5 5 5 6 6 8 6 5 6 7 6 4 4 5 5 5 4 4 5 5 4 4 4 4 4 4 4 4
4 5 6 9 9 8 8 7 7 7 7 7 7 6 6 5 6 6 5 6 7 6 6 5 5 5 4 3 4 5 5 5 5 6 6 5 6 6 5 5 6 5 5 5
3 4 4 6 7 7 7 7 8 8 8 8 7 6 6 6 6 6 6 5 5 5 5 4 4 4 4 3 4 5 5 5 5 6 6 6 5 5 5 7 5 5 5 5
Wind_Direction
101 100 60 41 29 33 43 38 29 2 8 358 348 350 359 7 13 23 29 31 30 28 28 28 31 32 34 36 41 52 59 57 49 44 40 35 32 2 316 287 265 252 241 235
138 144 71 53 36 33 36 24 18 17 30 352 342 359 12 17 18 22 27 29 31 32 32 34 35 36 41 45 48 54 56 52 44 45 43 33 26 20 7 331 292 270 254 244
135 161 218 72 32 23 31 22 0 5 347 334 349 4 10 11 14 20 24 26 28 32 33 34 37 39 43 47 53 56 55 51 45 43 41 35 32 31 22 9 346 310 287 270
163 196 165 81 87 316 339 22 4 349 344 340 334 334 17 19 11 14 16 20 24 26 30 33 38 43 49 50 52 53 51 49 44 41 42 39 37 32 22 17 15 359 348 333
223 174 133 166 185 229 266 56 7 349 356 351 328 230 64 26 9 5 6 11 18 19 24 34 35 33 46 54 53 51 46 43 41 39 38 35 34 31 25 24 27 23 19 10
216 228 184 135 132 182 245 165 85 347 358 355 351 42 31 2 355 359 1 5 8 15 25 32 30 28 43 51 52 48 44 43 43 41 39 35 33 31 28 32 36 36 35 26
223 235 138 131 143 191 231 92 89 357 358 360 9 4 341 340 353 359 2 2 0 12 25 24 20 29 46 50 49 45 43 43 41 40 40 35 34 35 35 37 42 44 44 38
216 223 177 147 169 210 58 87 106 360 359 355 348 343 346 351 357 360 1 2 357 0 15 20 18 28 49 48 42 43 44 44 42 39 36 34 37 36 37 36 38 37 39 40
234 31 84 166 190 157 162 190 133 350 349 340 336 345 349 351 355 357 355 356 351 346 349 9 26 19 36 45 35 39 44 43 40 44 45 38 35 35 35 34 33 31 30 29
230 211 188 191 197 197 209 225 277 317 325 326 332 340 345 347 349 352 352 352 344 337 340 355 3 0 10 24 6 20 37 36 38 42 47 51 42 38 37 31 30 31 27 22
224 186 186 205 206 199 196 212 240 278 309 325 330 338 343 342 347 346 344 344 339 336 334 331 334 332 333 334 329 4 36 44 45 51 49 53 63 46 40 47 27 16 16 16
208 187 190 191 191 191 194 204 220 263 305 331 333 336 339 342 344 341 339 339 338 337 328 325 328 327 322 289 299 340 28 41 41 49 52 50 70 96 75 51 44 38 28 16
128 166 169 152 172 182 193 197 203 244 300 323 333 337 334 336 338 337 338 342 340 334 327 324 324 325 333 268 257 321 30 51 50 43 51 53 53 61 95 114 102 64 48 42
163 162 168 172 174 180 185 186 196 227 268 301 318 328 331 332 337 341 344 341 333 328 327 329 328 336 343 266 210 215 83 80 60 63 52 56 57 57 56 61 79 85 75 57
189 194 182 170 171 176 181 186 201 221 246 281 305 318 330 334 337 338 338 336 330 330 341 342 342 355 354 268 203 180 148 118 95 78 76 74 71 70 70 70 68 69 78 83
184 190 183 178 178 180 187 197 211 222 238 273 299 319 328 327 326 329 337 340 335 339 345 344 350 355 344 251 185 171 135 89 74 123 118 104 90 84 81 77 73 65 54 42
179 187 189 189 188 190 195 203 216 226 236 258 293 315 317 319 325 337 342 340 331 327 334 345 348 343 324 237 191 175 158 148 178 188 113 102 95 91 91 91 84 76 64 44
196 194 194 193 191 194 199 203 211 223 238 256 282 292 305 317 328 333 334 331 328 332 358 356 350 329 309 211 192 176 167 164 170 145 137 139 123 117 107 105 102 99 101 97
200 198 199 200 199 198 201 204 209 218 227 239 258 281 301 308 317 323 326 326 332 342 353 349 331 313 329 143 181 187 179 171 172 164 156 149 194 165 153 138 125 114 110 108
198 198 198 196 195 201 203 205 208 214 220 232 250 269 286 301 314 318 319 318 336 343 330 331 320 324 327 155 203 196 183 184 185 177 178 191 194 186 177 175 174 155 139 125
197 195 194 193 193 199 205 204 205 213 215 221 242 263 285 299 304 307 311 314 344 349 327 311 307 322 317 240 218 208 194 191 193 193 190 197 200 201 200 191 189 187 176 156
199 197 197 196 195 199 202 205 207 213 217 222 234 253 270 284 295 300 296 303 325 335 319 310 320 345 332 283 226 207 203 199 199 197 199 203 206 208 206 204 201 192 191 176
201 201 200 200 202 203 200 204 208 213 220 227 235 245 260 279 291 294 303 326 327 331 315 312 336 326 306 256 224 207 204 203 201 199 201 204 207 210 207 205 205 197 194 182
206 205 205 204 205 205 205 207 210 214 221 230 237 245 255 265 269 264 282 296 302 310 305 323 323 315 286 247 228 216 208 202 202 205 200 203 205 207 206 205 203 200 194 188
215 210 206 202 203 209 215 211 210 214 221 229 236 236 240 247 262 282 294 300 308 305 306 316 312 304 278 253 236 225 214 204 202 199 201 203 203 209 208 203 202 200 196 194
239 227 217 211 212 212 211 208 210 213 217 225 232 231 229 230 240 252 264 279 291 297 300 306 308 289 282 271 252 239 225 198 192 206 210 208 205 204 206 204 202 201 199 196
278 248 236 233 226 221 218 213 217 219 220 225 232 230 226 225 230 241 254 266 279 288 297 301 304 303 294 275 256 241 230 219 211 210 209 209 209 207 205 203 202 199 196 195